Location: Unspecified
(0.0000°N, 0.0000°E)
Time: 03:33:54
(UTC+00:00)

Vanguard 2 - Pass Details

Date: 31 May 2024
Orbit: 552 x 2914 km, 32.9° (Epoch: 14 June)

Event Time Altitude Azimuth Distance (km) Brightness Sun altitude
Exits shadow 02:46:43 12° 168° (SSE) 5,064 11.5 -43.4°
Drops below altitude 10° 02:49:46 10° 156° (SSE) 5,382 11.7 -42.7°
Sets 02:59:15 0° 131° (SE) 6,714 12.5 -40.6°
